| time (UTC) | temp F | wind direction | speed MPH | gust MPH | rain 1hr in | rain 24hr in | rain mn in | humidity % | barometer mb |
| 20260904174528 | 67 | 221 | 1.0 | 5.0 | 0.00 | 0.00 | 0.00 | 42 | 1011.9 |
| 20260904173104 | 66 | 248 | 0.0 | 3.0 | 0.00 | 0.00 | 0.00 | 41 | 1011.6 |
| 20260904171602 | 65 | 288 | 0.0 | 2.0 | 0.00 | 0.00 | 0.00 | 44 | 1011.5 |
| 20260904170053 | 65 | 298 | 0.0 | 3.0 | 0.00 | 0.00 | 0.00 | 46 | 1011.3 |
| 20260904164554 | 65 | 304 | 0.0 | 3.0 | 0.00 | 0.00 | 0.00 | 47 | 1011.3 |
| 20260904163051 | 64 | 262 | 0.0 | 4.0 | 0.00 | 0.00 | 0.00 | 45 | 1011.4 |
| 20260904161552 | 64 | 281 | 2.0 | 6.0 | 0.00 | 0.00 | 0.00 | 44 | 1011.2 |
| 20260904160049 | 65 | 229 | 2.0 | 5.0 | 0.00 | 0.00 | 0.00 | 42 | 1011.1 |
| 20260904154548 | 66 | 214 | 2.0 | 8.0 | 0.00 | 0.00 | 0.00 | 41 | 1011.0 |
| 20260904153055 | 66 | 243 | 1.0 | 5.0 | 0.00 | 0.00 | 0.00 | 41 | 1010.4 |
| 20260904151544 | 65 | 106 | 4.0 | 7.0 | 0.00 | 0.00 | 0.00 | 42 | 1009.9 |
| 20260904150041 | 62 | 56 | 3.0 | 6.0 | 0.00 | 0.00 | 0.00 | 47 | 1009.7 |
| 20260904144539 | 62 | 68 | 4.0 | 8.0 | 0.00 | 0.00 | 0.00 | 46 | 1009.8 |
| 20260904143039 | 63 | 78 | 6.0 | 9.0 | 0.00 | 0.00 | 0.00 | 46 | 1009.6 |
| 20260904141540 | 59 | 71 | 2.0 | 5.0 | 0.00 | 0.00 | 0.00 | 52 | 1009.9 |
| 20260904140129 | 58 | 336 | 0.0 | 3.0 | 0.00 | 0.00 | 0.00 | 53 | 1010.1 |
| 20260904134533 | 57 | 30 | 6.0 | 10.0 | 0.00 | 0.00 | 0.00 | 54 | 1009.5 |
| 20260904133025 | 56 | 53 | 3.0 | 6.0 | 0.00 | 0.00 | 0.00 | 56 | 1009.8 |
| 20260904131523 | 54 | 11 | 0.0 | 5.0 | 0.00 | 0.00 | 0.00 | 60 | 1010.0 |
| 20260904130021 | 53 | 37 | 2.0 | 7.0 | 0.00 | 0.00 | 0.00 | 60 | 1009.8 |
| 20260904124520 | 52 | 52 | 2.0 | 6.0 | 0.00 | 0.00 | 0.00 | 62 | 1009.6 |
| 20260904123019 | 52 | 47 | 4.0 | 6.0 | 0.00 | 0.00 | 0.00 | 61 | 1009.5 |
| 20260904121521 | 53 | 4 | 3.0 | 6.0 | 0.00 | 0.00 | 0.00 | 59 | 1009.4 |
| 20260904120015 | 53 | 46 | 4.0 | 7.0 | 0.00 | 0.00 | 0.00 | 58 | 1009.6 |
| 20260904114514 | 54 | 44 | 4.0 | 8.0 | 0.00 | 0.00 | 0.00 | 57 | 1009.7 |
| 20260904113013 | 55 | 48 | 7.0 | 10.0 | 0.00 | 0.00 | 0.00 | 55 | 1009.6 |
| 20260904111512 | 55 | 50 | 6.0 | 10.0 | 0.00 | 0.00 | 0.00 | 54 | 1009.6 |
| 20260904110007 | 56 | 47 | 8.0 | 12.0 | 0.00 | 0.00 | 0.00 | 53 | 1009.7 |
| 20260904104507 | 55 | 60 | 4.0 | 8.0 | 0.00 | 0.00 | 0.00 | 55 | 1009.9 |
| 20260904103003 | 56 | 51 | 5.0 | 11.0 | 0.00 | 0.00 | 0.00 | 54 | 1010.2 |
| 20260904101601 | 54 | 46 | 5.0 | 8.0 | 0.00 | 0.00 | 0.00 | 57 | 1010.4 |
| 20260904100100 | 54 | 50 | 4.0 | 6.0 | 0.00 | 0.00 | 0.00 | 56 | 1010.5 |
| 20260904094530 | 55 | 44 | 6.0 | 12.0 | 0.00 | 0.00 | 0.00 | 55 | 1010.4 |
| 20260904093029 | 55 | 60 | 8.0 | 13.0 | 0.00 | 0.00 | 0.00 | 55 | 1010.6 |
| 20260904091525 | 55 | 56 | 7.0 | 12.0 | 0.00 | 0.00 | 0.00 | 55 | 1010.7 |
| 20260904090024 | 55 | 63 | 7.0 | 13.0 | 0.00 | 0.00 | 0.00 | 55 | 1010.6 |
| 20260904084522 | 54 | 56 | 4.0 | 8.0 | 0.00 | 0.00 | 0.00 | 57 | 1010.8 |
| 20260904083021 | 55 | 57 | 6.0 | 10.0 | 0.00 | 0.00 | 0.00 | 56 | 1011.0 |
| 20260904081512 | 53 | 20 | 4.0 | 6.0 | 0.00 | 0.00 | 0.00 | 61 | 1011.0 |
| 20260904080011 | 50 | 31 | 2.0 | 3.0 | 0.00 | 0.00 | 0.00 | 68 | 1011.3 |
| 20260904074517 | 49 | 308 | 0.0 | 0.0 | 0.00 | 0.00 | 0.00 | 68 | 1011.4 |
| 20260904073007 | 51 | 297 | 1.0 | 3.0 | 0.00 | 0.00 | 0.00 | 64 | 1011.6 |
| 20260904071558 | 52 | 69 | 0.0 | 0.0 | 0.00 | 0.00 | 0.00 | 63 | 1011.6 |
| 20260904070121 | 53 | 73 | 0.0 | 0.0 | 0.00 | 0.00 | 0.00 | 61 | 1011.8 |
| 20260904064556 | 54 | 295 | 0.0 | 1.0 | 0.00 | 0.00 | 0.00 | 63 | 1011.7 |
| 20260904063101 | 53 | 295 | 0.0 | 0.0 | 0.00 | 0.00 | 0.00 | 65 | 1011.7 |
| 20260904061525 | 52 | 295 | 0.0 | 1.0 | 0.00 | 0.00 | 0.00 | 63 | 1011.9 |
| 20260904060024 | 51 | 291 | 0.0 | 1.0 | 0.00 | 0.00 | 0.00 | 64 | 1012.0 |
| 20260904054517 | 52 | 295 | 0.0 | 2.0 | 0.00 | 0.00 | 0.00 | 63 | 1012.0 |
| 20260904053020 | 53 | 304 | 0.0 | 3.0 | 0.00 | 0.00 | 0.00 | 59 | 1012.3 |
| 20260904051515 | 54 | 300 | 0.0 | 1.0 | 0.00 | 0.00 | 0.00 | 60 | 1012.5 |
| 20260904050014 | 54 | 300 | 0.0 | 0.0 | 0.00 | 0.00 | 0.00 | 60 | 1012.7 |
| 20260904044512 | 53 | 300 | 0.0 | 0.0 | 0.00 | 0.00 | 0.00 | 60 | 1012.5 |
| 20260904043015 | 52 | 300 | 0.0 | 1.0 | 0.00 | 0.00 | 0.00 | 61 | 1012.4 |
| 20260904041512 | 51 | 300 | 0.0 | 0.0 | 0.00 | 0.00 | 0.00 | 62 | 1012.3 |
| 20260904040011 | 50 | 300 | 0.0 | 1.0 | 0.00 | 0.00 | 0.00 | 63 | 1012.2 |
| 20260904034507 | 52 | 300 | 0.0 | 0.0 | 0.00 | 0.00 | 0.00 | 59 | 1012.2 |
| 20260904033007 | 50 | 302 | 0.0 | 3.0 | 0.00 | 0.00 | 0.00 | 61 | 1012.3 |
| 20260904031505 | 52 | 297 | 0.0 | 1.0 | 0.00 | 0.00 | 0.00 | 59 | 1012.3 |
| 20260904030006 | 53 | 317 | 0.0 | 0.0 | 0.00 | 0.00 | 0.00 | 57 | 1012.4 |
| 20260904024601 | 54 | 318 | 0.0 | 1.0 | 0.00 | 0.00 | 0.00 | 55 | 1012.1 |
| 20260904023100 | 55 | 296 | 0.0 | 1.0 | 0.00 | 0.00 | 0.00 | 53 | 1011.8 |
| 20260904021607 | 57 | 344 | 0.0 | 3.0 | 0.00 | 0.00 | 0.00 | 49 | 1011.6 |
| 20260904020058 | 60 | 319 | 0.0 | 0.0 | 0.00 | 0.00 | 0.00 | 47 | 1011.5 |
| 20260904014636 | 62 | 320 | 0.0 | 2.0 | 0.00 | 0.00 | 0.00 | 45 | 1011.4 |
| 20260904013055 | 64 | 320 | 0.0 | 3.0 | 0.00 | 0.00 | 0.00 | 42 | 1011.6 |
| 20260904011559 | 67 | 307 | 0.0 | 5.0 | 0.00 | 0.00 | 0.00 | 39 | 1011.6 |
| 20260904004553 | 68 | 290 | 2.0 | 7.0 | 0.00 | 0.01 | 0.00 | 37 | 1011.4 |
| 20260904003057 | 70 | 297 | 3.0 | 13.0 | 0.00 | 0.01 | 0.00 | 36 | 1011.3 |
| 20260904001549 | 71 | 272 | 6.0 | 12.0 | 0.00 | 0.01 | 0.00 | 35 | 1011.3 |
| 20260904000046 | 72 | 329 | 4.0 | 10.0 | 0.00 | 0.04 | 0.00 | 36 | 1011.2 |
| 20260903234542 | 73 | 276 | 1.0 | 8.0 | 0.00 | 0.04 | 0.00 | 34 | 1010.9 |
| 20260903233051 | 73 | 300 | 2.0 | 15.0 | 0.00 | 0.04 | 0.00 | 34 | 1010.9 |
| 20260903231542 | 73 | 312 | 2.0 | 12.0 | 0.00 | 0.04 | 0.00 | 34 | 1011.0 |
| 20260903230048 | 74 | 302 | 4.0 | 8.0 | 0.00 | 0.04 | 0.00 | 34 | 1010.8 |
| 20260903224538 | 75 | 293 | 2.0 | 10.0 | 0.00 | 0.04 | 0.00 | 35 | 1010.7 |
| 20260903223034 | 74 | 260 | 2.0 | 5.0 | 0.00 | 0.04 | 0.00 | 36 | 1010.4 |
| 20260903221534 | 73 | 266 | 3.0 | 8.0 | 0.00 | 0.04 | 0.00 | 36 | 1010.3 |
| 20260903220040 | 76 | 240 | 3.0 | 8.0 | 0.00 | 0.04 | 0.00 | 33 | 1010.2 |
| 20260903214502 | 76 | 254 | 4.0 | 13.0 | 0.00 | 0.04 | 0.00 | 32 | 1010.0 |
| 20260903213101 | 74 | 314 | 2.0 | 5.0 | 0.00 | 0.04 | 0.00 | 35 | 1009.9 |
| 20260903211600 | 75 | 237 | 2.0 | 8.0 | 0.00 | 0.04 | 0.00 | 33 | 1009.8 |
| 20260903210101 | 73 | 227 | 2.0 | 8.0 | 0.00 | 0.04 | 0.00 | 34 | 1009.9 |
| 20260903204556 | 73 | 243 | 3.0 | 6.0 | 0.00 | 0.04 | 0.00 | 34 | 1009.9 |
| 20260903203105 | 73 | 283 | 1.0 | 6.0 | 0.00 | 0.04 | 0.00 | 36 | 1009.9 |
| 20260903201554 | 72 | 269 | 3.0 | 8.0 | 0.00 | 0.04 | 0.00 | 36 | 1010.0 |
| 20260903200023 | 73 | 248 | 1.0 | 7.0 | 0.00 | 0.04 | 0.00 | 36 | 1010.1 |
| 20260903194523 | 74 | 269 | 5.0 | 12.0 | 0.00 | 0.04 | 0.00 | 35 | 1010.2 |
| 20260903193020 | 72 | 302 | 3.0 | 14.0 | 0.00 | 0.04 | 0.00 | 36 | 1010.1 |
| 20260903191519 | 74 | 245 | 4.0 | 8.0 | 0.00 | 0.04 | 0.00 | 34 | 1010.1 |
| 20260903190018 | 74 | 238 | 5.0 | 13.0 | 0.00 | 0.04 | 0.00 | 35 | 1010.0 |
| 20260903184515 | 72 | 238 | 8.0 | 16.0 | 0.00 | 0.04 | 0.00 | 36 | 1010.0 |
| 20260903183010 | 72 | 246 | 9.0 | 15.0 | 0.00 | 0.04 | 0.00 | 36 | 1009.8 |
| 20260903181509 | 72 | 250 | 11.0 | 18.0 | 0.00 | 0.04 | 0.00 | 36 | 1009.8 |
| 20260903180007 | 71 | 210 | 5.0 | 13.0 | 0.00 | 0.04 | 0.00 | 39 | 1009.9 |